Location: Unspecified
(48.2082°N, 0.0000°E)
Time: 04:03:53
(UTC+00:00)

Vanguard 1 Rocket - Visible Passes

Search period start: 18 June 2019 00:00
Search period end: 28 June 2019 00:00
Orbit: 652 x 4224 km, 34.3° (Epoch: 17 June)

Date Brightness Start Highest point End Pass type
(mag) Time Alt. Az. Time Alt. Az. Time Alt. Az.
18 Jun 8.8 22:28:58 10° WSW 22:32:36 15° SSW 22:33:09 15° SSW visible
19 Jun 8.8 21:15:39 10° WSW 21:22:07 24° SSW 21:25:52 13° SSE visible
20 Jun 9.1 22:32:05 10° WSW 22:35:04 13° SSW 22:35:51 13° SSW visible
21 Jun 8.9 21:18:08 10° WSW 21:24:40 22° SSW 21:28:32 13° SSE visible
22 Jun 9.3 22:35:53 10° SW 22:37:26 11° SW 22:38:31 10° SSW visible
23 Jun 9.1 21:20:43 10° WSW 21:27:07 21° SSW 21:31:13 11° SSE visible
25 Jun 9.3 21:23:26 10° WSW 21:29:28 18° SW 21:33:48 10° S visible
27 Jun 9.5 21:26:25 10° WSW 21:31:42 16° SW 21:35:42 10° S visible
